THOR AGENA D R/B, 2255

Orbit data source: Space-Track

THOR AGENA D R/B, 2255 is space debris in LEO originally from a launch on Fri, 24 Jun 1966 UTC launched from the Air Force Western Test Range (AFWTR). Debris objects in space refer to the collection of defunct objects orbiting the Earth. Examples of debris include non-operational satellites, rocket bodies, and fragments generated from explosions, collisions, or faulty payload assembly.

Loading next visibility...
Identifier
2255, 1966-056B
Orbit
LEO
Country
Flag of USUS
Related business
Manufacturer
LMSC
Mission
Spacecraft
Bus & Motor
AGENA D, Unknown motor
Mass
600 kg wet, 600 kg dry
Launch date (UTC)
1966-06-24 (60 years ago)
Launch vehicle
Unknown
Launch site
Air Force Western Test Range (AFWTR)
Object type
Payload
Rocket body
Debris
Shape & HBR
Unknown
Radar Cross Section
Large (>1 m²)

Expand to show TLE details & history
Last TLE update: 8 hours ago

TLE from 8 hours ago
0 THOR AGENA D R/B
1 02255U 66056B   26124.54048314  .00000016  00000-0  12956-1 0  9992
2 02255  86.9791 182.9092 0047258 135.9441 224.5145  7.94756589736852
Epoch: 2026-05-04T12:58Z
TLE epoch observation values (Epoch: 2026-05-04T12:58:17.743Z)
Latitude
-0.00005°
Longitude
125.90706°
Altitude
4,266.46 km
Speed
6.11 km/s
True Right ascension
12h 11m 38s
True Declination
0° 00' 00"
Sunlit
Object was in daylight at epoch
Visualization orbit readout
Latitude
Unknown
Longitude
Unknown
Altitude
Unknown
Speed
Unknown
Apparent Right ascension
Unknown
Apparent Declination
Unknown
Sunlit
N/A
Visualization observer readout
Local Sidereal Time
04:37:44
Azimuth
Unknown
Elevation
Unknown
Doppler factor
Unknown
Orbital elements
Apogee altitude
4,276.597 km
Perigee altitude
4,176.366 km
Semi-major axis
10,604.619 km
Eccentricity
0.00473
Inclination
86.9791°
RAAN
182.9092°
Arg. of periapsis
135.9441°
True anomaly
224.13643°
Mean anomaly
224.5145°
Eccentric anomaly
224.32531°
Mean motion
1.98747 °/min
Orbital period
181.13 mins
BSTAR
0.012956
Loading maneuver chart data...
Computing Atmospheric mass density...

Documentation

Showing up to 5 results
|